Regional Weather Roundup
Issued by NWS State College, PA

Home | Current Version | Previous Version | Graphics & Text | Print | Product List | Glossary On
Versions: 1 2 3 4 5 6 7 8 9 10 11 12 13 14 15 16 17 18 19 20 21 22 23 24 25 26 27 28 29 30 31 32 33 34 35 36 37 38 39 40 41 42 43 44 45 46 47 48 49 50
000
ASUS41 KCTP 231810
RWRCTP

REGIONAL WEATHER ROUNDUP
NATIONAL WEATHER SERVICE STATE COLLEGE PA
200 PM EDT SAT MAY 23 2015

Note: "fair" indicates few or no clouds below 12,000 feet with no
significant weather and/or obstructions to visibility.

* = STATION THAT DOES NOT REPORT PRECIPITATION /E.G. RAIN...SNOW...ETC/
    THUNDER OR FOG.

PAZ002>004-007>009-013>016-020>023-029>032-231900-
WESTERN PENNSYLVANIA

CITY           SKY/WX    TMP DP  RH WIND       PRES   REMARKS
ERIE           SUNNY     64  26  23 W8        30.42F
MEADVILLE      SUNNY     64  30  27 VRB5      30.41F
FRANKLIN*      SUNNY     64  30  27 W8        30.43F
NEW CASTLE     FAIR      69  34  27 W8        30.42F
BEAVER COUNTY  SUNNY     66  37  34 CALM      30.42F
BUTLER*        SUNNY     66  32  28 W6        30.44F
PITTSBURGH INT MOSUNNY   68  33  27 MISG      30.41F
PITTSBURGH     SUNNY     67  29  24 SW6       30.41F
INDIANA*       SUNNY     63  32  31 W7        30.46F
LATROBE        SUNNY     66  32  28 W9        30.44F
WASHINGTON CO* SUNNY     68  39  34 SW6       30.43F
$$

PAZ004>006-010>012-017>019-024>028-033>037-041-042-045-046-049>053-231900-
CENTRAL PENNSYLVANIA

CITY           SKY/WX    TMP DP  RH WIND       PRES   REMARKS
BRADFORD       SUNNY     63  21  20 W9        30.40F
DUBOIS         SUNNY     64  27  24 VRB5      30.41F
CLEARFIELD     SUNNY     64  27  24 VRB3      30.41F
JOHNSTOWN      SUNNY     63  29  27 VRB5      30.42F
ALTOONA        SUNNY     64  29  26 S6        30.41F
STATE COLLEGE  SUNNY     64  27  24 W8        30.40F
WILLIAMSPORT   SUNNY     63  25  23 NW8       30.40F
SELINSGROVE    SUNNY     64  30  27 CALM      30.42F
FT INDIANTOWN  SUNNY     64  27  24 VRB2      30.41F
CAPITAL CITY   SUNNY     64  29  26 E3        30.42F
HARRISBURG     SUNNY     65  29  25 NW8       30.41F
YORK           SUNNY     65  32  29 NW7       30.42F
$$

PAZ038>040-043-044-047-048-054-055-060>062-067>071-231900-
EASTERN PENNSYLVANIA

CITY           SKY/WX    TMP DP  RH WIND       PRES   REMARKS
SCRANTON       SUNNY     61  25  25 SW7       30.39F
MOUNT POCONO   SUNNY     59  17  19 VRB5      30.39F
ALLENTOWN      SUNNY     64  25  22 CALM      30.40F
QUAKERTOWN*    CLEAR     63  28  27 NW6       30.42F
READING        SUNNY     66  27  23 W12       30.41F
LANCASTER      SUNNY     63  30  28 VRB5      30.42F
COATESVILLE    CLEAR     61  28  29 W8        30.43F
POTTSTOWN      SUNNY     63  29  27 NW9       30.43F
BLUE BELL      SUNNY     64  30  27 W3        30.41F
DOYLESTOWN     SUNNY     64  25  22 VRB7      30.40F
WILLOW GROVE   NOT AVBL
NORTH PHILA    SUNNY     66  23  19 CALM      30.43F
PHILADELPHIA   SUNNY     65  28  24 S8        30.42F
$$


USA.gov is the U.S. government's official web portal to all federal, state and local government web resources and services.